This demonstration page uses our WeatherBlox Daily Observations layout. Learn more.

Left ArrowRight Arrow

40.97296, -117.73568

Hourly Observations for August 18, 2016

Temp ( °F °C ) Dew Point ( °F °C ) Humidity (%) Winds ( mph kmh ) Pressure ( in mb ) Visibility ( mi km ) Precip ( " mm )
12:56 am 00:56 Clear 60 15.6 36 2.2 41 41 SE 5 7 29.85 1011 10 16 0.00 0.00
1:56 am 01:56 Clear 58 14.4 34 1.1 41 41 Calm 29.86 1011 10 16 0.00 0.00
2:56 am 02:56 Clear 58 14.4 34 1.1 41 41 Calm 29.87 1011 10 16 0.00 0.00
3:56 am 03:56 Clear 54 12.2 34 1.1 47 47 Calm 29.88 1012 10 16 0.00 0.00
4:56 am 04:56 Clear 51 10.6 34 1.1 52 52 SE 5 7 29.88 1012 10 16 0.00 0.00
5:56 am 05:56 Clear 50 10 32 0 50 50 SE 5 7 29.91 1013 10 16 0.00 0.00
6:56 am 06:56 Sunny 53 11.7 32 0 45 45 SE 5 7 29.92 1013 10 16 0.00 0.00
7:56 am 07:56 Sunny 64 17.8 33 0.6 32 32 Calm 29.91 1013 10 16 0.00 0.00
8:56 am 08:56 Sunny 75 23.9 36 2.2 24 24 N 3 6 29.92 1013 10 16 0.00 0.00
9:56 am 09:56 Sunny 82 27.8 38 3.3 21 21 N 7 11 29.89 1012 10 16 0.00 0.00
10:56 am 10:56 Sunny 88 31.1 37 2.8 16 16 NNE 10 17 29.88 1012 10 16 0.00 0.00
11:56 am 11:56 Sunny 92 33.3 36 2.2 14 14 NE 12 19 29.87 1012 10 16 0.00 0.00
12:56 pm 12:56 Sunny 94 34.4 33 0.6 12 12 undefined N/A 29.87 1012 10 16 0.00 0.00
1:56 pm 13:56 Sunny 94 34.4 31 -0.6 11 11 VRB 6 9 29.85 1011 10 16 0.00 0.00
2:56 pm 14:56 Sunny 97 36.1 33 0.6 10 10 N 10 17 29.83 1010 10 16 0.00 0.00
3:56 pm 15:56 Sunny 95 35 33 0.6 11 11 N 9 15 29.82 1010 10 16 0.00 0.00
4:56 pm 16:56 Sunny 95 35 32 0 11 11 WNW 3 6 29.82 1010 10 16 0.00 0.00
5:56 pm 17:56 Sunny 92 33.3 34 1.1 13 13 S 6 9 29.83 1010 10 16 0.00 0.00
6:56 pm 18:56 Sunny 91 32.8 34 1.1 13 13 W 7 11 29.82 1010 10 16 0.00 0.00
7:56 pm 19:56 Clear 85 29.4 35 1.7 17 17 Calm 29.82 1010 10 16 0.00 0.00
8:56 pm 20:56 Clear 80 26.7 36 2.2 20 20 NNW 5 7 29.83 1010 10 16 0.00 0.00
9:56 pm 21:56 Clear 73 22.8 35 1.7 25 25 NNE 5 7 29.85 1011 10 16 0.00 0.00
10:56 pm 22:56 Clear 65 18.3 32 0 29 29 NNW 8 13 29.86 1011 10 16 0.00 0.00
11:56 pm 23:56 Clear 78 25.6 34 1.1 20 20 NE 12 19 29.83 1010 10 16 0.00 0.00

Powered by AerisWeather